[[{"header":{"parameterUnit":"m.s-1","parameterCategory":1,"la1":30.2991,"la2":30.254,"lo1":-89.0895,"lo2":-89.0444,"dy":0.0017,"dx":0.0017,"nx":28,"ny":28,"refTime":"2024-05-07T09:00:00:Z","depth":0,"parameterNumber":2,"parameterNumberName":"U-component_of_WINDS"},"data":[0,0,0,0,0,0,0,0,0,0,0,0,0,0,0,0,0,0,0,0,0,0,0,0,0,0,0,0,0,0,0,0,0,0,0,0,0,0,0,0,0,0,0,0,0,0,0,0,0,0,0,0,0,0,0,0,0,0,-1.796,-1.796,0,-1.797,-1.797,-1.797,-1.7962,-1.7962,-1.7962,-1.7962,-1.7971,-1.7972,-1.7972,0,0,0,0,0,0,0,0,0,0,0,0,0,-1.7936,-1.7936,-1.796,-1.796,-1.7961,-1.797,-1.797,-1.797,-1.7963,-1.7962,-1.7962,-1.7961,-1.7971,-1.7972,-1.7972,0,0,0,0,0,0,0,0,0,0,0,0,0,-1.7946,-1.7936,-1.796,-1.7958,-1.7958,-1.797,-1.797,-1.797,-1.7963,-1.7962,-1.7962,-1.7961,-1.7971,-1.7971,-1.7972,-1.7987,0,0,-1.7975,-1.7975,0,0,0,0,0,0,0,0,-1.7945,-1.7947,-1.7958,-1.7958,-1.7958,-1.7964,-1.7965,-1.7976,-1.7963,-1.7961,-1.7962,-1.7961,-1.7969,-1.797,-1.7973,-1.7987,-1.7988,-1.7975,-1.7975,-1.7976,-1.7976,0,0,0,0,0,0,0,-1.7945,-1.7946,-1.7964,-1.7958,-1.7958,-1.7956,-1.7957,-1.7967,-1.7968,-1.7961,-1.796,-1.7962,-1.7969,-1.7972,-1.7973,-1.7988,-1.7975,-1.7976,-1.7976,-1.7976,-1.8015,-1.8016,0,0,0,0,0,0,-1.7944,-1.7946,-1.7964,-1.7964,-1.795,-1.7957,-1.7958,-1.7963,-1.7967,-1.7968,-1.7962,-1.7961,-1.7971,-1.7972,-1.7973,-1.7991,-1.7976,-1.7977,-1.7977,-1.8015,-1.8015,-1.8016,0,0,0,0,0,0,-1.7944,-1.7946,-1.7963,-1.7955,-1.7957,-1.7958,-1.7963,-1.7963,-1.7966,-1.7968,-1.7968,-1.7965,-1.7971,-1.7972,-1.7984,-1.7991,-1.7977,-1.7978,-1.8014,-1.8015,-1.8016,-1.8026,0,0,0,0,0,0,-1.7943,-1.7946,-1.7951,-1.7955,-1.7957,-1.7974,-1.7964,-1.7964,-1.7968,-1.7967,-1.7971,-1.7971,-1.797,-1.7983,-1.7985,-1.7992,-1.7978,-1.8014,-1.8015,-1.8016,-1.8025,-1.8028,-1.8029,0,0,0,0,0,-1.7942,-1.7954,-1.7951,-1.7954,-1.7964,-1.7974,-1.7975,-1.7974,-1.7969,-1.7974,-1.7975,-1.7971,-1.799,-1.7984,-1.7986,-1.7994,-1.8013,-1.8014,-1.8015,-1.8025,-1.8027,-1.8029,0,0,0,0,0,0,-1.795,-1.7954,-1.7952,-1.7965,-1.7969,-1.7973,-1.798,-1.7977,-1.7983,-1.7981,-1.798,-1.7981,-1.7993,-1.7995,-1.7987,-1.8009,-1.8001,-1.8002,-1.8007,-1.8009,-1.8011,-1.8011,-1.7979,0,0,0,0,0,-1.7954,-1.7961,-1.7964,-1.7976,-1.7978,-1.7979,-1.7983,-1.7981,-1.7986,-1.7987,-1.7989,-1.7994,-1.8001,-1.8005,-1.8012,-1.8026,-1.8027,-1.8032,-1.8034,-1.8036,-1.8037,-1.8045,-1.8048,-1.802,-1.802,-1.802,0,0,-1.7961,-1.7964,-1.7969,-1.7977,-1.7981,-1.7988,-1.798,-1.7989,-1.7994,-1.7988,-1.7999,-1.8001,-1.8006,-1.8019,-1.8025,-1.8021,-1.8045,-1.8038,-1.8039,-1.8039,-1.8047,-1.8049,-1.8052,-1.8021,-1.8021,-1.8021,0,0,-1.7978,-1.7981,-1.7991,-1.7994,-1.7999,-1.8,-1.8002,-1.8006,-1.8007,-1.8018,-1.8014,-1.8021,-1.8033,-1.8036,-1.804,-1.8058,-1.8055,-1.8061,-1.8071,-1.8078,-1.808,-1.8082,-1.8089,-1.8091,-1.8062,-1.8062,-1.8062,0,-1.7986,-1.7998,-1.7996,-1.8005,-1.8009,-1.8005,-1.8015,-1.8018,-1.8025,-1.8028,-1.8023,-1.8038,-1.8041,-1.8055,-1.806,-1.8063,-1.8065,-1.806,-1.808,-1.8082,-1.8084,-1.809,-1.8093,-1.8063,-1.8063,-1.8063,-1.8063,0,-1.8008,-1.8016,-1.8023,-1.803,-1.8035,-1.8044,-1.8045,-1.805,-1.8048,-1.8049,-1.806,-1.8064,-1.8071,-1.8074,-1.8072,-1.8088,-1.8085,-1.8081,-1.8072,-1.8087,-1.8093,-1.8096,-1.8064,-1.8063,-1.8063,-1.8063,0,0,-1.803,-1.8036,-1.8039,-1.8042,-1.8047,-1.8054,-1.8063,-1.807,-1.8074,-1.8079,-1.8087,-1.8098,-1.8093,-1.8097,-1.8096,-1.8103,-1.8118,-1.8098,-1.8098,-1.8101,-1.8135,-1.8138,-1.8141,-1.8115,-1.8116,-1.8116,-1.8134,0,-1.8047,-1.8064,-1.8063,-1.8078,-1.8086,-1.8081,-1.809,-1.8094,-1.8095,-1.8101,-1.8103,-1.811,-1.8104,-1.8106,-1.8113,-1.8114,-1.8124,-1.8113,-1.8122,-1.8123,-1.8121,-1.8144,-1.8147,-1.8164,-1.8136,-1.8137,-1.8137,0,-1.807,-1.8075,-1.8092,-1.8096,-1.8099,-1.8106,-1.8113,-1.8119,-1.8124,-1.8124,-1.8129,-1.8126,-1.8136,-1.8128,-1.8141,-1.8133,-1.8137,-1.8138,-1.8139,-1.814,-1.8131,-1.8145,-1.8169,-1.8172,-1.8141,-1.814,-1.814,0,-1.8085,-1.8096,-1.8108,-1.811,-1.8116,-1.8121,-1.8123,-1.8127,-1.8132,-1.8137,-1.814,-1.8147,-1.8151,-1.8156,-1.8156,-1.815,-1.8169,-1.8161,-1.8169,-1.8169,-1.8174,-1.8173,-1.8199,-1.8176,-1.8176,-1.8176,-1.8176,0,-1.8104,-1.8114,-1.8114,-1.8121,-1.8132,-1.8131,-1.8142,-1.8144,-1.8148,-1.8155,-1.8152,-1.8159,-1.8158,-1.8165,-1.8165,-1.8175,-1.8177,-1.8178,-1.8177,-1.8178,-1.8178,-1.818,-1.8179,-1.8177,-1.8177,-1.8176,-1.8176,0,-1.8123,-1.8123,-1.8135,-1.8139,-1.814,-1.8148,-1.8152,-1.8158,-1.8159,-1.8168,-1.817,-1.8172,-1.818,-1.818,-1.8189,-1.8189,-1.8202,-1.8201,-1.82,-1.82,-1.8209,-1.8208,-1.8237,-1.824,-1.8215,-1.8216,-1.8216,0,-1.8135,-1.8143,-1.8147,-1.8152,-1.8155,-1.8162,-1.8167,-1.8166,-1.8171,-1.8177,-1.8182,-1.819,-1.8196,-1.8209,-1.8211,-1.8218,-1.8216,-1.8226,-1.8217,-1.8217,-1.8216,-1.8216,-1.8217,-1.8228,-1.8228,-1.8228,-1.8228,0,-1.8157,-1.8157,-1.8164,-1.817,-1.8176,-1.8181,-1.8186,-1.819,-1.819,-1.8195,-1.8203,-1.8208,-1.8217,-1.8225,-1.8232,-1.8234,-1.8231,-1.8231,-1.8233,-1.8234,-1.8233,-1.8234,-1.8205,-1.823,-1.823,-1.823,-1.823,-1.823,-1.8173,-1.818,-1.8184,-1.8192,-1.8195,-1.82,-1.8206,-1.8208,-1.8215,-1.8222,-1.8221,-1.823,-1.8235,-1.8243,-1.8246,-1.8253,-1.825,-1.8253,-1.8254,-1.8255,-1.8256,-1.8232,-1.8254,-1.8254,-1.8254,-1.8254,-1.8254,0,-1.8195,-1.8198,-1.8205,-1.8212,-1.8218,-1.8214,-1.822,-1.8225,-1.8233,-1.8237,-1.8243,-1.8252,-1.8259,-1.8262,-1.8269,-1.8274,-1.8273,-1.8276,-1.8276,-1.8276,-1.8259,-1.8256,-1.8277,-1.8277,-1.8277,-1.8277,-1.8277,-1.8277,-1.8208,-1.8219,-1.8219,-1.8232,-1.8234,-1.8243,-1.8246,-1.8251,-1.8254,-1.8264,-1.827,-1.8272,-1.8275,-1.8283,-1.8289,-1.829,-1.8293,-1.8296,-1.8296,-1.828,-1.8277,-1.8275,-1.8273,-1.8297,-1.8297,-1.8313,-1.8313,-1.8313]},{"header":{"parameterUnit":"m.s-1","parameterCategory":1,"la1":30.2991,"la2":30.254,"lo1":-89.0895,"lo2":-89.0444,"dy":0.0017,"dx":0.0017,"nx":28,"ny":28,"refTime":"2024-05-07T09:00:00:Z","depth":0,"parameterNumber":3,"parameterNumberName":"V-component_of_WINDS"},"data":[0,0,0,0,0,0,0,0,0,0,0,0,0,0,0,0,0,0,0,0,0,0,0,0,0,0,0,0,0,0,0,0,0,0,0,0,0,0,0,0,0,0,0,0,0,0,0,0,0,0,0,0,0,0,0,0,0,0,7.274,7.2741,0,7.283,7.2831,7.2832,7.2776,7.2773,7.2771,7.2768,7.2854,7.2858,7.2863,0,0,0,0,0,0,0,0,0,0,0,0,0,7.2513,7.2517,7.274,7.2741,7.2742,7.283,7.2831,7.2832,7.2776,7.2773,7.277,7.2767,7.2852,7.2858,7.2863,0,0,0,0,0,0,0,0,0,0,0,0,0,7.2608,7.2519,7.274,7.2725,7.2725,7.2829,7.2831,7.2832,7.2777,7.2773,7.2769,7.2766,7.285,7.2857,7.2864,7.2986,0,0,7.2886,7.2889,0,0,0,0,0,0,0,0,7.2602,7.2616,7.2726,7.2726,7.2726,7.2788,7.2782,7.2884,7.2778,7.2757,7.2768,7.2764,7.2834,7.2843,7.2868,7.299,7.2994,7.2886,7.2891,7.2894,7.2896,0,0,0,0,0,0,0,7.2596,7.2612,7.2775,7.2728,7.2728,7.2711,7.2721,7.2801,7.2816,7.2759,7.2755,7.2766,7.2834,7.2861,7.2869,7.2995,7.2886,7.2892,7.2897,7.2899,7.3219,7.3223,0,0,0,0,0,0,7.2591,7.2607,7.2772,7.2778,7.2653,7.2719,7.2729,7.2772,7.2815,7.2818,7.277,7.2764,7.2851,7.2861,7.2872,7.3016,7.2894,7.29,7.2904,7.3215,7.322,7.3225,0,0,0,0,0,0,7.2587,7.2607,7.2769,7.2691,7.2711,7.2727,7.2775,7.2776,7.2803,7.2824,7.2826,7.2796,7.2848,7.2862,7.2958,7.3019,7.2903,7.291,7.321,7.3217,7.3222,7.3307,0,0,0,0,0,0,7.258,7.2605,7.2654,7.2693,7.2715,7.2856,7.2779,7.278,7.2816,7.2809,7.2849,7.2851,7.2846,7.2948,7.2965,7.3026,7.2915,7.3204,7.3213,7.322,7.3299,7.3315,7.333,0,0,0,0,0,7.2573,7.2673,7.2657,7.2677,7.2776,7.2859,7.2872,7.2866,7.2821,7.2869,7.2882,7.285,7.301,7.2958,7.2977,7.3041,7.3201,7.321,7.322,7.3292,7.3312,7.3329,0,0,0,0,0,0,7.2638,7.2678,7.266,7.2777,7.2815,7.285,7.291,7.2888,7.2938,7.2929,7.2917,7.2927,7.3027,7.3043,7.2986,7.316,7.3098,7.3112,7.3146,7.3166,7.3181,7.3174,7.2921,0,0,0,0,0,7.2667,7.2733,7.2763,7.2863,7.2883,7.2894,7.2929,7.2922,7.296,7.2975,7.2996,7.3032,7.309,7.3129,7.3184,7.3301,7.3308,7.3354,7.337,7.3382,7.3394,7.3456,7.3476,7.3256,7.3256,7.3256,0,0,7.2725,7.2755,7.2798,7.2877,7.2906,7.2972,7.2907,7.2981,7.3029,7.2986,7.3078,7.3094,7.3134,7.3241,7.3289,7.3258,7.3456,7.3395,7.3404,7.3409,7.3467,7.3488,7.3507,7.3263,7.3261,7.326,0,0,7.2866,7.2897,7.2983,7.3013,7.3059,7.3064,7.3085,7.3123,7.3133,7.3225,7.3194,7.325,7.3351,7.338,7.3408,7.356,7.3531,7.3577,7.3658,7.3718,7.3735,7.375,7.3803,7.3822,7.3589,7.3589,7.359,0,7.2933,7.3035,7.3029,7.3105,7.314,7.3105,7.3191,7.322,7.328,7.3304,7.3269,7.3394,7.3418,7.3531,7.3568,7.3592,7.3613,7.3573,7.3734,7.3749,7.3763,7.3813,7.3833,7.3595,7.3594,7.3594,7.3593,0,7.3113,7.3184,7.3248,7.3309,7.3351,7.3431,7.3435,7.3477,7.3465,7.3474,7.3568,7.3596,7.3655,7.3681,7.367,7.3792,7.3771,7.3735,7.3672,7.3789,7.3836,7.3855,7.3602,7.36,7.3599,7.3597,0,0,7.3299,7.3355,7.3379,7.3405,7.3453,7.3506,7.3583,7.3643,7.3679,7.3721,7.3784,7.387,7.3837,7.3869,7.3861,7.3914,7.4029,7.3871,7.3871,7.3898,7.4163,7.419,7.4212,7.4011,7.4015,7.4018,7.416,0,7.3441,7.358,7.3576,7.3703,7.3767,7.3735,7.3802,7.3837,7.3847,7.39,7.391,7.3971,7.3923,7.3942,7.3993,7.4005,7.4082,7.3994,7.4068,7.407,7.4058,7.4237,7.4265,7.4397,7.4178,7.4181,7.4183,0,7.3627,7.3677,7.3812,7.3849,7.3875,7.3936,7.399,7.4042,7.408,7.4083,7.4119,7.4102,7.4177,7.4113,7.4215,7.4156,7.4185,7.4195,7.42,7.4206,7.4134,7.4246,7.4439,7.4459,7.4212,7.421,7.4208,0,7.3747,7.3848,7.3941,7.3965,7.4011,7.4054,7.4074,7.4109,7.4144,7.419,7.4213,7.4267,7.4296,7.4337,7.4333,7.4287,7.4437,7.4373,7.444,7.444,7.4473,7.4471,7.4673,7.4494,7.4493,7.4493,7.4493,0,7.3907,7.399,7.3996,7.4053,7.4144,7.4138,7.4228,7.4243,7.4274,7.4331,7.4306,7.436,7.4353,7.4406,7.4404,7.4489,7.4502,7.4505,7.4503,7.4507,7.4507,7.4526,7.4516,7.4498,7.4497,7.4496,7.4495,0,7.4056,7.4064,7.4163,7.4199,7.4209,7.4275,7.4303,7.4356,7.4364,7.4437,7.4453,7.4465,7.4526,7.4527,7.4597,7.4595,7.4699,7.4687,7.4687,7.4684,7.4751,7.4744,7.4972,7.5,7.4804,7.4806,7.4807,0,7.4158,7.4221,7.4263,7.4301,7.4325,7.4386,7.4423,7.4418,7.4457,7.4504,7.4551,7.461,7.4658,7.4757,7.477,7.4823,7.4812,7.4888,7.4819,7.4821,7.4811,7.4807,7.4813,7.4901,7.4903,7.4905,7.4906,0,7.4336,7.4336,7.4392,7.4448,7.4493,7.4537,7.4577,7.4609,7.4608,7.4653,7.4717,7.4754,7.4826,7.4884,7.4936,7.4953,7.4929,7.4928,7.4946,7.495,7.4947,7.4948,7.4722,7.4922,7.4921,7.4919,7.4918,7.4918,7.4463,7.4518,7.4556,7.4618,7.4648,7.4686,7.4737,7.4752,7.4805,7.4865,7.4858,7.4929,7.4963,7.5029,7.5052,7.5105,7.5078,7.5105,7.5111,7.5118,7.5125,7.4939,7.5114,7.5114,7.5113,7.5113,7.5113,0,7.4639,7.4662,7.4719,7.4777,7.4825,7.48,7.4843,7.4884,7.4947,7.4982,7.503,7.5102,7.5159,7.5176,7.523,7.5269,7.5259,7.5283,7.528,7.5284,7.5146,7.5125,7.529,7.529,7.529,7.529,7.529,7.529,7.4736,7.4827,7.4832,7.4935,7.4957,7.5028,7.5054,7.5088,7.5116,7.5198,7.5246,7.5257,7.5284,7.534,7.539,7.5393,7.5414,7.5443,7.5441,7.5312,7.5294,7.5277,7.5256,7.5447,7.5448,7.5574,7.5576,7.5576]}]]